EWG5MA LOWI-LFKB

Flight info

Callsign EWG5MA
Flight time 1h 5m
Altitude 19000
Route RTT DCT BRENO M726 NAXAV L12 LUMAV T558 OMAKU Q125 ELB/N0339F180 L146 MOULE
Aircraft A20N/M-SDE2E3FGHIRWXY/LB1

Departure

Time 2026-05-05 09:51
Airport Innsbruck Airport (LOWI)

Arrival

Time 2026-05-05 10:56
Airport Bastia-Poretta International airport (LFKB)
Time Latitude Longitude Altitude Speed Heading
2026-05-05 09:40 47.25834 11.35169 1941 ft 0 kts 171°
2026-05-05 09:44 47.25850 11.35165 1897 ft 2 kts 174°
2026-05-05 09:44 47.25866 11.35163 1900 ft 2 kts 178°
2026-05-05 09:45 47.25883 11.35164 1908 ft 2 kts 203°
2026-05-05 09:45 47.25892 11.35180 1902 ft 1 kts 261°
2026-05-05 09:45 47.25893 11.35183 1897 ft 0 kts 259°
2026-05-05 09:46 47.25892 11.35181 1897 ft 1 kts 259°
2026-05-05 09:46 47.25889 11.35148 1905 ft 6 kts 261°
2026-05-05 09:47 47.25879 11.35064 1901 ft 11 kts 261°
2026-05-05 09:47 47.25863 11.34921 1909 ft 16 kts 260°
2026-05-05 09:47 47.25845 11.34740 1905 ft 19 kts 261°
2026-05-05 09:47 47.25821 11.34538 1900 ft 21 kts 259°
2026-05-05 09:48 47.25798 11.34316 1913 ft 23 kts 262°
2026-05-05 09:48 47.25772 11.34077 1911 ft 24 kts 262°
2026-05-05 09:48 47.25806 11.33884 1906 ft 17 kts 306°
2026-05-05 09:48 47.25876 11.33746 1905 ft 18 kts 307°
2026-05-05 09:49 47.25933 11.33573 1907 ft 20 kts 264°
2026-05-05 09:49 47.25911 11.33372 1907 ft 17 kts 260°
2026-05-05 09:49 47.25888 11.33231 1902 ft 13 kts 235°
2026-05-05 09:49 47.25839 11.33152 1909 ft 11 kts 259°
2026-05-05 09:50 47.25867 11.33076 1909 ft 10 kts 21°
2026-05-05 09:50 47.25903 11.33309 1913 ft 58 kts 79°
2026-05-05 09:50 47.26009 11.34264 1899 ft 128 kts 79°
2026-05-05 09:50 47.26143 11.35740 2259 ft 154 kts 86°
2026-05-05 09:51 47.26320 11.37340 3078 ft 160 kts 82°
2026-05-05 09:51 47.26541 11.38969 3890 ft 164 kts 80°
2026-05-05 09:51 47.26778 11.40606 4774 ft 162 kts 81°
2026-05-05 09:51 47.27010 11.42217 5580 ft 166 kts 82°
2026-05-05 09:52 47.27245 11.43982 6200 ft 180 kts 84°
2026-05-05 09:52 47.27096 11.45730 6926 ft 174 kts 123°
2026-05-05 09:52 47.26235 11.46908 7482 ft 176 kts 162°
2026-05-05 09:52 47.24980 11.47011 7877 ft 193 kts 193°
2026-05-05 09:53 47.23619 11.46501 8305 ft 212 kts 195°
2026-05-05 09:53 47.22113 11.45896 8574 ft 235 kts 195°
2026-05-05 09:53 47.20454 11.45258 8968 ft 258 kts 194°
2026-05-05 09:53 47.18646 11.44608 9619 ft 272 kts 193°
2026-05-05 09:54 47.16792 11.43969 10468 ft 278 kts 193°
2026-05-05 09:54 47.14831 11.43304 10855 ft 301 kts 193°
2026-05-05 09:54 47.12718 11.42594 11204 ft 321 kts 193°
2026-05-05 09:54 47.10510 11.41853 11910 ft 328 kts 193°
2026-05-05 09:55 47.08273 11.41100 12761 ft 332 kts 193°
2026-05-05 09:55 47.06012 11.40340 13599 ft 335 kts 193°
2026-05-05 09:55 47.03716 11.39567 14251 ft 341 kts 193°
2026-05-05 09:55 47.01423 11.38796 15044 ft 343 kts 193°
2026-05-05 09:56 46.99083 11.38012 15712 ft 348 kts 192°
2026-05-05 09:56 46.96682 11.37478 16471 ft 351 kts 185°
2026-05-05 09:56 46.94198 11.37218 17191 ft 355 kts 184°
2026-05-05 09:56 46.91717 11.36956 17900 ft 359 kts 184°
2026-05-05 09:57 46.89241 11.36689 18522 ft 363 kts 184°
2026-05-05 09:57 46.86709 11.36414 18822 ft 367 kts 184°
2026-05-05 09:57 46.84167 11.36136 18931 ft 366 kts 184°
2026-05-05 09:57 46.81622 11.35859 18951 ft 367 kts 184°
2026-05-05 09:58 46.79072 11.35584 18961 ft 366 kts 185°
2026-05-05 09:58 46.76534 11.35312 18962 ft 365 kts 185°
2026-05-05 09:58 46.74006 11.35051 18971 ft 365 kts 185°
2026-05-05 09:58 46.71469 11.34793 18974 ft 365 kts 185°
2026-05-05 09:59 46.68939 11.34534 18977 ft 365 kts 185°
2026-05-05 09:59 46.66455 11.34279 18977 ft 364 kts 185°
2026-05-05 09:59 46.63922 11.34020 18979 ft 364 kts 185°
2026-05-05 09:59 46.61415 11.33763 18987 ft 364 kts 185°
2026-05-05 10:00 46.58870 11.33501 18990 ft 365 kts 185°
2026-05-05 10:00 46.56340 11.33242 18990 ft 364 kts 185°
2026-05-05 10:00 46.53814 11.32983 18995 ft 364 kts 185°
2026-05-05 10:00 46.51286 11.32722 18992 ft 365 kts 185°
2026-05-05 10:01 46.48748 11.32506 18995 ft 365 kts 182°
2026-05-05 10:01 46.46215 11.32693 18993 ft 366 kts 175°
2026-05-05 10:01 46.43699 11.33369 18995 ft 369 kts 168°
2026-05-05 10:01 46.41237 11.34430 18992 ft 369 kts 165°
2026-05-05 10:02 46.38781 11.35512 18994 ft 370 kts 166°
2026-05-05 10:02 46.36329 11.36582 18994 ft 370 kts 166°
2026-05-05 10:02 46.33854 11.37654 18986 ft 369 kts 166°
2026-05-05 10:02 46.31462 11.38686 18982 ft 370 kts 166°
2026-05-05 10:03 46.28989 11.39752 18984 ft 371 kts 166°
2026-05-05 10:03 46.26522 11.40816 18988 ft 369 kts 166°
2026-05-05 10:03 46.24065 11.41877 19029 ft 370 kts 166°
2026-05-05 10:03 46.21597 11.42941 19027 ft 370 kts 166°
2026-05-05 10:04 46.19129 11.44006 19023 ft 371 kts 166°
2026-05-05 10:04 46.16649 11.45077 19019 ft 371 kts 166°
2026-05-05 10:04 46.14184 11.46138 19014 ft 370 kts 166°
2026-05-05 10:04 46.11711 11.47202 19006 ft 370 kts 166°
2026-05-05 10:05 46.09247 11.48261 19004 ft 370 kts 166°
2026-05-05 10:05 46.06782 11.49318 18997 ft 370 kts 166°
2026-05-05 10:05 46.04312 11.50377 18998 ft 369 kts 166°
2026-05-05 10:05 46.01874 11.51421 19003 ft 370 kts 166°
2026-05-05 10:06 45.99412 11.52474 19007 ft 369 kts 166°
2026-05-05 10:06 45.96953 11.53526 19006 ft 369 kts 166°
2026-05-05 10:06 45.94489 11.54579 19011 ft 369 kts 166°
2026-05-05 10:06 45.92034 11.55627 19006 ft 368 kts 166°
2026-05-05 10:07 45.89574 11.56677 19011 ft 369 kts 166°
2026-05-05 10:07 45.87113 11.57726 19010 ft 368 kts 166°
2026-05-05 10:07 45.84651 11.58772 19013 ft 369 kts 166°
2026-05-05 10:07 45.82243 11.59795 19012 ft 369 kts 166°
2026-05-05 10:08 45.79784 11.60839 19011 ft 369 kts 166°
2026-05-05 10:08 45.77328 11.61881 19021 ft 369 kts 166°
2026-05-05 10:08 45.74860 11.62928 19015 ft 368 kts 166°
2026-05-05 10:08 45.72414 11.63965 19015 ft 368 kts 166°
2026-05-05 10:09 45.69946 11.65010 19021 ft 368 kts 166°
2026-05-05 10:09 45.67494 11.66047 19019 ft 369 kts 166°
2026-05-05 10:09 45.65038 11.66944 19018 ft 367 kts 172°
2026-05-05 10:09 45.62510 11.67402 19018 ft 365 kts 179°
2026-05-05 10:10 45.59979 11.67401 19016 ft 363 kts 185°
2026-05-05 10:10 45.57456 11.67191 19015 ft 363 kts 185°
2026-05-05 10:10 45.54935 11.66997 19015 ft 363 kts 185°
2026-05-05 10:10 45.52410 11.66810 19018 ft 363 kts 185°
2026-05-05 10:11 45.49891 11.66627 19017 ft 363 kts 185°
2026-05-05 10:11 45.47373 11.66445 19019 ft 362 kts 185°
2026-05-05 10:11 45.44851 11.66263 19017 ft 363 kts 185°
2026-05-05 10:11 45.42331 11.66080 19018 ft 363 kts 185°
2026-05-05 10:12 45.39805 11.65898 19019 ft 363 kts 185°
2026-05-05 10:12 45.37279 11.65715 19017 ft 364 kts 185°
2026-05-05 10:12 45.34753 11.65532 19024 ft 364 kts 185°
2026-05-05 10:12 45.32228 11.65350 19018 ft 364 kts 185°
2026-05-05 10:13 45.29737 11.65170 19014 ft 364 kts 185°
2026-05-05 10:13 45.27205 11.64988 19014 ft 364 kts 185°
2026-05-05 10:13 45.24677 11.64806 19016 ft 364 kts 185°
2026-05-05 10:13 45.22142 11.64623 19013 ft 365 kts 185°
2026-05-05 10:14 45.19605 11.64441 19009 ft 364 kts 185°
2026-05-05 10:14 45.17074 11.64259 19008 ft 365 kts 185°
2026-05-05 10:14 45.14539 11.64077 19010 ft 365 kts 185°
2026-05-05 10:14 45.12002 11.63891 19006 ft 365 kts 185°
2026-05-05 10:15 45.09461 11.63702 19002 ft 365 kts 185°
2026-05-05 10:15 45.06925 11.63514 19002 ft 365 kts 185°
2026-05-05 10:15 45.04382 11.63325 19000 ft 365 kts 185°
2026-05-05 10:15 45.01845 11.63138 19002 ft 365 kts 185°
2026-05-05 10:16 44.99304 11.62950 19002 ft 366 kts 185°
2026-05-05 10:16 44.96766 11.62763 19002 ft 365 kts 185°
2026-05-05 10:16 44.94228 11.62576 19001 ft 365 kts 185°
2026-05-05 10:16 44.91694 11.62390 19001 ft 365 kts 185°
2026-05-05 10:17 44.89141 11.62203 18999 ft 366 kts 185°
2026-05-05 10:17 44.86599 11.62016 18999 ft 365 kts 185°
2026-05-05 10:17 44.84057 11.61830 18995 ft 365 kts 185°
2026-05-05 10:17 44.81528 11.61544 18996 ft 364 kts 190°
2026-05-05 10:18 44.79051 11.60837 18997 ft 363 kts 196°
2026-05-05 10:18 44.76601 11.59967 18994 ft 363 kts 195°
2026-05-05 10:18 44.74149 11.59105 18994 ft 363 kts 195°
2026-05-05 10:18 44.71699 11.58250 18993 ft 363 kts 195°
2026-05-05 10:19 44.69242 11.57396 18991 ft 363 kts 195°
2026-05-05 10:19 44.66809 11.56552 18991 ft 363 kts 195°
2026-05-05 10:19 44.64348 11.55700 18992 ft 363 kts 195°
2026-05-05 10:19 44.61895 11.54851 18990 ft 363 kts 195°
2026-05-05 10:20 44.59443 11.54003 18992 ft 363 kts 195°
2026-05-05 10:20 44.56989 11.53154 18991 ft 363 kts 195°
2026-05-05 10:20 44.54537 11.52307 18992 ft 363 kts 195°
2026-05-05 10:20 44.52081 11.51460 18993 ft 363 kts 195°
2026-05-05 10:21 44.49631 11.50615 18991 ft 363 kts 196°
2026-05-05 10:21 44.47178 11.49770 18992 ft 363 kts 196°
2026-05-05 10:21 44.45553 11.49211 18994 ft 363 kts 196°
2026-05-05 10:21 44.43104 11.48369 18995 ft 363 kts 196°
2026-05-05 10:22 44.40645 11.47524 19013 ft 363 kts 196°
2026-05-05 10:22 44.38193 11.46682 19019 ft 363 kts 196°
2026-05-05 10:22 44.35737 11.45839 19023 ft 364 kts 196°
2026-05-05 10:22 44.33274 11.44994 19026 ft 365 kts 196°
2026-05-05 10:23 44.30802 11.44147 19036 ft 365 kts 195°
2026-05-05 10:23 44.28342 11.43306 19040 ft 364 kts 195°
2026-05-05 10:23 44.25876 11.42465 19042 ft 366 kts 196°
2026-05-05 10:23 44.23412 11.41623 19051 ft 365 kts 196°
2026-05-05 10:24 44.20944 11.40780 19059 ft 365 kts 196°
2026-05-05 10:24 44.18492 11.39944 19068 ft 365 kts 196°
2026-05-05 10:24 44.16035 11.39082 19068 ft 364 kts 198°
2026-05-05 10:24 44.13658 11.37889 19072 ft 363 kts 205°
2026-05-05 10:25 44.11407 11.36327 19061 ft 362 kts 209°
2026-05-05 10:25 44.09171 11.34702 19058 ft 362 kts 209°
2026-05-05 10:25 44.06979 11.33120 19044 ft 361 kts 209°
2026-05-05 10:25 44.04780 11.31539 19042 ft 362 kts 209°
2026-05-05 10:26 44.02544 11.29938 19004 ft 361 kts 208°
2026-05-05 10:26 44.00309 11.28344 19002 ft 361 kts 209°
2026-05-05 10:26 43.98074 11.26749 19006 ft 361 kts 209°
2026-05-05 10:26 43.95841 11.25156 18997 ft 360 kts 209°
2026-05-05 10:27 43.93616 11.23570 18993 ft 359 kts 209°
2026-05-05 10:27 43.91396 11.21988 18991 ft 358 kts 209°
2026-05-05 10:27 43.89180 11.20411 18998 ft 358 kts 209°
2026-05-05 10:27 43.86968 11.18839 18991 ft 357 kts 209°
2026-05-05 10:28 43.84791 11.17292 18995 ft 357 kts 209°
2026-05-05 10:28 43.82583 11.15725 18991 ft 356 kts 209°
2026-05-05 10:28 43.80380 11.14163 18993 ft 355 kts 209°
2026-05-05 10:28 43.78185 11.12607 18994 ft 356 kts 209°
2026-05-05 10:29 43.75981 11.11046 18993 ft 356 kts 209°
2026-05-05 10:29 43.73774 11.09484 18991 ft 356 kts 209°
2026-05-05 10:29 43.71570 11.07927 18992 ft 356 kts 209°
2026-05-05 10:29 43.69368 11.06371 18998 ft 356 kts 209°
2026-05-05 10:30 43.67229 11.04862 19002 ft 357 kts 209°
2026-05-05 10:30 43.64987 11.03281 19004 ft 356 kts 209°
2026-05-05 10:30 43.62779 11.01724 19006 ft 356 kts 209°
2026-05-05 10:30 43.60569 11.00168 19007 ft 357 kts 209°
2026-05-05 10:31 43.58361 10.98615 19006 ft 357 kts 209°
2026-05-05 10:31 43.56147 10.97059 19008 ft 356 kts 209°
2026-05-05 10:31 43.53939 10.95508 19008 ft 357 kts 209°
2026-05-05 10:31 43.51723 10.93953 19005 ft 357 kts 209°
2026-05-05 10:32 43.49518 10.92408 19010 ft 356 kts 209°
2026-05-05 10:32 43.47300 10.90854 19009 ft 357 kts 209°
2026-05-05 10:32 43.45118 10.89327 19015 ft 356 kts 209°
2026-05-05 10:32 43.42900 10.87776 19006 ft 357 kts 209°
2026-05-05 10:33 43.40694 10.86233 19016 ft 356 kts 209°
2026-05-05 10:33 43.38479 10.84686 19001 ft 357 kts 209°
2026-05-05 10:33 43.36260 10.83138 19012 ft 357 kts 209°
2026-05-05 10:33 43.34041 10.81592 19003 ft 358 kts 209°
2026-05-05 10:34 43.31912 10.80109 19007 ft 357 kts 209°
2026-05-05 10:34 43.29688 10.78562 19004 ft 357 kts 209°
2026-05-05 10:34 43.27468 10.77018 19009 ft 358 kts 209°
2026-05-05 10:34 43.25248 10.75475 19003 ft 358 kts 209°
2026-05-05 10:35 43.23027 10.73933 19005 ft 358 kts 209°
2026-05-05 10:35 43.20805 10.72392 19005 ft 358 kts 210°
2026-05-05 10:35 43.18580 10.70850 19007 ft 358 kts 209°
2026-05-05 10:35 43.16360 10.69313 19001 ft 358 kts 209°
2026-05-05 10:36 43.14135 10.67774 19007 ft 359 kts 209°
2026-05-05 10:36 43.11907 10.66233 18999 ft 358 kts 209°
2026-05-05 10:36 43.09684 10.64698 19003 ft 359 kts 210°
2026-05-05 10:36 43.07453 10.63156 19005 ft 360 kts 209°
2026-05-05 10:37 43.05227 10.61622 19000 ft 358 kts 209°
2026-05-05 10:37 43.03003 10.60090 18996 ft 358 kts 209°
2026-05-05 10:37 43.01225 10.58865 18999 ft 359 kts 210°
2026-05-05 10:37 42.98994 10.57329 18993 ft 358 kts 210°
2026-05-05 10:38 42.96777 10.55805 18995 ft 358 kts 210°
2026-05-05 10:38 42.94544 10.54271 18996 ft 358 kts 210°
2026-05-05 10:38 42.92317 10.52743 18994 ft 358 kts 210°
2026-05-05 10:38 42.90093 10.51217 18994 ft 358 kts 210°
2026-05-05 10:39 42.87870 10.49694 18991 ft 358 kts 210°
2026-05-05 10:39 42.85641 10.48166 18991 ft 360 kts 210°
2026-05-05 10:39 42.83361 10.46603 18986 ft 366 kts 210°
2026-05-05 10:39 42.81122 10.45076 18987 ft 356 kts 210°
2026-05-05 10:40 42.78912 10.43569 18989 ft 356 kts 210°
2026-05-05 10:40 42.76690 10.42051 18989 ft 358 kts 210°
2026-05-05 10:40 42.74635 10.40194 18981 ft 353 kts 225°
2026-05-05 10:40 42.73097 10.37620 18939 ft 350 kts 240°
2026-05-05 10:41 42.72191 10.34568 18634 ft 349 kts 255°
2026-05-05 10:41 42.71661 10.31359 18171 ft 347 kts 256°
2026-05-05 10:41 42.71145 10.28166 17576 ft 345 kts 256°
2026-05-05 10:41 42.70632 10.25028 17006 ft 343 kts 256°
2026-05-05 10:42 42.69588 10.18752 15894 ft 338 kts 256°
2026-05-05 10:42 42.69060 10.15611 15342 ft 336 kts 256°
2026-05-05 10:42 42.68546 10.12567 14816 ft 334 kts 256°
2026-05-05 10:43 42.68022 10.09465 14302 ft 331 kts 256°
2026-05-05 10:43 42.67507 10.06425 13800 ft 329 kts 256°
2026-05-05 10:43 42.67007 10.03477 13249 ft 328 kts 256°
2026-05-05 10:43 42.66489 10.00429 12678 ft 326 kts 256°
2026-05-05 10:44 42.65980 9.97441 12146 ft 324 kts 256°
2026-05-05 10:44 42.65473 9.94470 11610 ft 322 kts 256°
2026-05-05 10:44 42.64978 9.91568 11103 ft 321 kts 256°
2026-05-05 10:44 42.64476 9.88634 10602 ft 319 kts 256°
2026-05-05 10:45 42.63983 9.85757 10276 ft 312 kts 256°
2026-05-05 10:45 42.63504 9.82956 10147 ft 298 kts 256°
2026-05-05 10:45 42.63051 9.80311 10046 ft 285 kts 256°
2026-05-05 10:45 42.62611 9.77748 9924 ft 273 kts 256°
2026-05-05 10:46 42.62182 9.75257 9567 ft 269 kts 256°
2026-05-05 10:46 42.61757 9.72788 9151 ft 268 kts 256°
2026-05-05 10:46 42.61333 9.70327 8747 ft 267 kts 256°
2026-05-05 10:46 42.60912 9.67887 8349 ft 266 kts 256°
2026-05-05 10:47 42.60344 9.65516 7937 ft 264 kts 241°
2026-05-05 10:47 42.59132 9.63659 7493 ft 267 kts 216°
2026-05-05 10:47 42.57419 9.62697 7087 ft 271 kts 191°
2026-05-05 10:47 42.55525 9.62729 6688 ft 274 kts 178°
2026-05-05 10:48 42.53641 9.62956 6324 ft 272 kts 178°
2026-05-05 10:48 42.51766 9.63180 5941 ft 271 kts 177°
2026-05-05 10:48 42.49891 9.63396 5557 ft 269 kts 177°
2026-05-05 10:48 42.48023 9.63604 5156 ft 269 kts 177°
2026-05-05 10:49 42.46186 9.63952 4934 ft 263 kts 168°
2026-05-05 10:49 42.44466 9.64656 4844 ft 252 kts 164°
2026-05-05 10:49 42.42832 9.65352 4730 ft 241 kts 165°
2026-05-05 10:49 42.41263 9.66010 4588 ft 232 kts 165°
2026-05-05 10:50 42.39727 9.66641 4318 ft 230 kts 168°
2026-05-05 10:50 42.38173 9.66665 4004 ft 223 kts 198°
2026-05-05 10:50 42.36854 9.65622 3644 ft 221 kts 229°
2026-05-05 10:50 42.36130 9.63812 3324 ft 220 kts 253°
2026-05-05 10:51 42.35694 9.61823 3048 ft 220 kts 253°
2026-05-05 10:51 42.35302 9.59836 2772 ft 217 kts 265°
2026-05-05 10:51 42.35586 9.57920 2654 ft 206 kts 301°
2026-05-05 10:51 42.36548 9.56556 2494 ft 200 kts 326°
2026-05-05 10:52 42.37772 9.55735 2390 ft 196 kts 339°
2026-05-05 10:52 42.39095 9.55132 2390 ft 201 kts 342°
2026-05-05 10:52 42.40420 9.54588 2398 ft 199 kts 342°
2026-05-05 10:52 42.41747 9.54031 2398 ft 200 kts 342°
2026-05-05 10:53 42.43021 9.53499 2391 ft 187 kts 342°
2026-05-05 10:53 42.44271 9.52976 2100 ft 184 kts 342°
2026-05-05 10:53 42.45461 9.52478 1847 ft 177 kts 343°
2026-05-05 10:53 42.46598 9.52004 1631 ft 165 kts 343°
2026-05-05 10:54 42.47649 9.51562 1409 ft 150 kts 344°
2026-05-05 10:54 42.48607 9.51162 1208 ft 138 kts 345°
2026-05-05 10:54 42.49491 9.50791 1031 ft 129 kts 343°
2026-05-05 10:54 42.50348 9.50433 854 ft 128 kts 345°
2026-05-05 10:55 42.51208 9.50089 686 ft 133 kts 346°
2026-05-05 10:55 42.52117 9.49694 549 ft 140 kts 345°
2026-05-05 10:55 42.53040 9.49314 330 ft 136 kts 343°
2026-05-05 10:55 42.53925 9.48935 135 ft 131 kts 345°
2026-05-05 10:56 42.54760 9.48585 31 ft 111 kts 343°
2026-05-05 10:56 42.55303 9.48362 31 ft 53 kts 342°
2026-05-05 10:56 42.55578 9.48245 26 ft 39 kts 344°
2026-05-05 10:56 42.55832 9.48136 24 ft 37 kts 343°
2026-05-05 10:57 42.55962 9.48056 23 ft 17 kts 301°
2026-05-05 10:57 42.55946 9.47923 25 ft 12 kts 252°
2026-05-05 10:57 42.55875 9.47861 27 ft 14 kts 165°
2026-05-05 10:57 42.55770 9.47907 28 ft 17 kts 165°
2026-05-05 10:58 42.55648 9.47958 26 ft 20 kts 162°